TITAN 34B R/B, 12446

Orbit data source: Space-Track

TITAN 34B R/B, 12446 is space debris in HEO originally from a launch on Fri, 24 Apr 1981 UTC launched from the Air Force Western Test Range (AFWTR). Debris objects in space refer to the collection of defunct objects orbiting the Earth. Examples of debris include non-operational satellites, rocket bodies, and fragments generated from explosions, collisions, or faulty payload assembly.

Loading next visibility...
TITAN 34B R/B details
Identifier
12446, 1981-038B
Orbit
HEO
Last TLE update11 hours ago
Origin
Flag of USUSAF SD (US)
ManufacturerLMSC
MissionSpacecraft
Bus & MotorAGENA D, Unknown motor
Mass600 kg wet, 600 kg dry
Launch date (UTC)
1981-04-24 (44 years ago)
Launch vehicleUnknown
Launch site
Air Force Western Test Range (AFWTR)
Object type
Payload
Rocket body
Debris
Shape & HBRCyl, 6.3 m
Radar Cross Section8.306 m², Large (>1 m²)

Expand to show TLE details & history

TLE from 11 hours ago
0 TITAN 34B R/B
1 12446U 81038B   24361.07319402  .00009289  00000-0  23644-2 0  9998
2 12446  63.0546 163.0255 5622803 285.1519  21.7164  4.59444583 71018
Epoch: 2024-12-26T01:45Z
Definitive object data (Epoch: 2024-12-26T01:45:23.963Z)
Latitude-0.00007°
Longitude41.61816°
Altitude2,743.58 km
Speed7.832 km/s
True Right ascension10h 52m 06s
True Declination0° 00' 00"
Sunlit
Object was in daylight at TLE epoch
Visualization TLE readout
Latitude10.00082°
Longitude46.54413°
Altitude3,691.652 km
Speed7.287 km/s
Apparent Right ascension10h 46m 14s
Apparent Declination-24° 37' 12"
Sunlit
Object is in daylight
Visualization observer readout
Local Sidereal Time11:38:20
Azimuth192.998° SSW
Elevation24.33°
Doppler factor1
Orbital elements
Apogee altitude17,498.758 km
Perigee altitude311.691 km
Semi-major axis15,283.362 km
Eccentricity0.5622803
Inclination63.0546°
RAAN163.0255°
Arg. of periapsis285.1519°
True anomaly74.93121°
Mean anomaly21.7164°
Eccentric anomaly44.16057°
Mean motion1.14872 °/min
BSTAR0.0023644
Orbital period313.39 mins
Loading maneuver chart data...
Loading historical data...
Loading historical data...
Loading historical data...
Loading historical data...
Loading historical data...
Loading historical data...
Loading historical data...

TITAN 34B R/B Visibility forecast

Observer location: undefined°, undefined

Span
Click to sort rows by Start time (UTC) header in descending order
Start Az.
Max El. time (UTC)
Max El. Az.
Max El.
End time (UTC)
End Az.
186 mins2024-12-26 12:16:51.565Z192.971° SSW2024-12-26 12:37:51.565Z111.276° ESE44.605°2024-12-26 15:22:51.565Z51.907° ENE
233 mins2024-12-26 17:53:51.565Z294.784° NW2024-12-26 20:39:51.565Z61.543° ENE44.09°2024-12-26 21:46:51.565Z143.741° SSE
154 mins2024-12-27 00:09:51.565Z331.059° NNW2024-12-27 01:38:51.565Z304.935° NW24.568°2024-12-27 02:43:51.565Z262.273° W
110 mins2024-12-27 09:14:51.565Z109.193° ESE2024-12-27 09:40:51.565Z63.448° ENE25.17°2024-12-27 11:04:51.565Z28.927° NE
|